Location: Dana
(41.8364°N, 106.7042°W)
Time: 05:02:39
(UTC+00:00)

Transit 4A - All Passes

Search period start: 10 May 2026 00:00
Search period end: 20 May 2026 00:00
Orbit: 861 x 980 km, 66.8° (Epoch: 9 May)

Date Brightness Start Highest point End Pass type
(mag) Time Alt. Az. Time Alt. Az. Time Alt. Az.
10 May - 01:32:41 10° NW 01:39:04 70° WSW 01:45:22 10° SSE daylight
10 May - 03:23:30 10° W 03:24:14 10° W 03:24:58 10° WSW visible
10 May - 14:54:23 10° SSE 14:59:15 26° ESE 15:04:14 10° NE daylight
10 May - 16:39:10 10° SW 16:45:09 55° NW 16:51:21 10° NNE daylight
10 May - 18:29:49 10° WNW 18:32:59 14° NNW 18:36:11 10° N daylight
10 May - 23:55:24 10° NNW 00:01:11 34° NE 00:06:56 10° ESE daylight
11 May - 01:41:36 10° NW 01:47:43 48° WSW 01:53:45 10° S daylight
11 May - 15:02:14 10° S 15:07:46 38° ESE 15:13:28 10° NE daylight
11 May - 16:48:19 10° WSW 16:54:03 40° NW 16:59:58 10° NNE daylight
11 May - 18:40:41 10° NW 18:42:19 11° NNW 18:43:56 10° NNW daylight
11 May - 22:19:26 10° N 22:22:05 13° NNE 22:24:43 10° NE daylight
12 May - 00:03:58 10° NNW 00:10:08 47° NE 00:16:14 10° SE daylight
12 May - 01:50:40 10° NW 01:56:17 33° WSW 02:01:50 10° S daylight
12 May - 15:10:26 10° S 15:16:21 56° ESE 15:22:28 10° NE daylight
12 May - 16:57:43 10° WSW 17:03:02 29° NW 17:08:30 10° NNE daylight
12 May - 22:27:30 10° N 22:31:22 16° NE 22:35:13 10° ENE daylight
13 May - 00:12:35 10° NNW 00:19:00 65° ENE 00:25:18 10° SE daylight
13 May - 02:00:00 10° WNW 02:04:47 23° WSW 02:09:32 10° SSW daylight
13 May - 13:37:34 10° ESE 13:39:46 12° E 13:41:59 10° ENE daylight
13 May - 15:18:55 10° SSW 15:25:00 81° ESE 15:31:20 10° NNE daylight
13 May - 17:07:22 10° W 17:12:06 22° NW 17:16:57 10° N daylight
13 May - 22:35:49 10° N 22:40:33 21° NE 22:45:16 10° E daylight
14 May - 00:21:19 10° NNW 00:27:47 90° SE 00:34:08 10° SSE daylight
14 May - 02:09:50 10° WNW 02:13:12 15° WSW 02:16:33 10° SW daylight
14 May - 13:44:02 10° SSE 13:48:09 19° ESE 13:52:20 10° ENE daylight
14 May - 15:27:39 10° SW 15:33:45 72° WNW 15:40:05 10° NNE daylight
14 May - 17:17:19 10° WNW 17:21:17 17° NW 17:25:19 10° N daylight
14 May - 22:44:15 10° NNW 22:49:39 28° NE 22:55:01 10° ESE daylight
15 May - 00:30:08 10° NW 00:36:29 64° WSW 00:42:43 10° SSE daylight
15 May - 13:51:31 10° SSE 13:56:36 28° ESE 14:01:49 10° NE daylight
15 May - 15:36:38 10° SW 15:42:35 51° NW 15:48:45 10° NNE daylight
15 May - 17:27:39 10° WNW 17:30:32 13° NNW 17:33:27 10° N daylight
15 May - 21:09:11 10° NNE 21:10:18 10° NNE 21:11:24 10° NE daylight
15 May - 22:52:46 10° NNW 22:58:40 37° NE 23:04:30 10° ESE daylight
16 May - 00:39:05 10° NW 00:45:06 44° WSW 00:51:02 10° S daylight
16 May - 13:59:27 10° S 14:05:07 42° ESE 14:10:58 10° NE daylight
16 May - 15:45:51 10° WSW 15:51:30 37° NW 15:57:21 10° NNE daylight
16 May - 17:38:53 10° NW 17:39:53 10° NNW 17:40:53 10° NNW daylight
16 May - 21:16:39 10° N 21:19:38 13° NNE 21:22:37 10° ENE daylight
16 May - 23:01:21 10° NNW 23:07:36 50° NE 23:13:45 10° SE daylight
17 May - 00:48:12 10° NW 00:53:39 30° WSW 00:59:02 10° SSW daylight
17 May - 14:07:44 10° SSW 14:13:43 61° ESE 14:19:56 10° NE daylight
17 May - 15:55:19 10° WSW 16:00:31 28° NW 16:05:52 10° NNE daylight
17 May - 21:24:48 10° N 21:28:54 17° NE 21:32:58 10° ENE daylight
17 May - 23:10:01 10° NNW 23:16:26 71° ENE 23:22:45 10° SE daylight
18 May - 00:57:36 10° WNW 01:02:08 21° WSW 01:06:35 10° SSW daylight
18 May - 12:34:13 10° SE 12:37:05 14° E 12:39:58 10° ENE daylight
18 May - 14:16:17 10° SSW 14:22:25 88° ESE 14:28:46 10° NNE daylight
18 May - 16:05:02 10° W 16:09:37 21° NW 16:14:18 10° N daylight
18 May - 21:33:09 10° N 21:38:04 22° NE 21:42:56 10° E daylight
18 May - 23:18:45 10° NNW 23:25:12 84° WSW 23:31:32 10° SSE daylight
19 May - 01:07:42 10° WNW 01:10:32 13° W 01:13:20 10° SW daylight
19 May - 12:41:04 10° SSE 12:45:29 21° ESE 12:49:59 10° ENE daylight
19 May - 14:25:05 10° SW 14:31:11 66° WNW 14:37:30 10° NNE daylight
19 May - 16:15:03 10° WNW 16:18:48 16° NW 16:22:37 10° N daylight
19 May - 21:41:36 10° NNW 21:47:08 29° NE 21:52:38 10° ESE daylight
19 May - 23:27:35 10° NW 23:33:53 59° WSW 23:40:03 10° SSE daylight
